Regional Weather Roundup
Issued by NWS

Home | Current Version | Previous Version | Graphics & Text | Print | Product List | Glossary On
Versions: 1 2 3 4 5 6 7 8 9 10 11 12 13 14 15 16 17 18 19 20 21 22 23 24 25 26 27 28 29 30 31 32 33 34 35 36 37 38 39 40 41 42 43 44 45 46 47 48
000
ASUS45 KCYS 300810
RWRWY

WYOMING REGIONAL WEATHER ROUNDUP
NATIONAL WEATHER SERVICE CHEYENNE WY
200 AM MDT SUN AUG 30 2015

NOTE:  "FAIR" INDICATES FEW OR NO CLOUDS BELOW 12,000 FEET
WITH NO SIGNIFICANT WEATHER AND/OR OBSTRUCTIONS TO VISIBILITY.

WYZ001-300900-
YELLOWSTONE NATIONAL PARK

CITY           SKY/WX    TMP DP  RH WIND       PRES   REMARKS
LK YELLOWSTONE   N/A     51  49  92 CALM      30.23F
W YELLOWSTONE  NOT AVBL

$$
WYZ002>013-054>058-071-098>099-300900-
NORTHERN WYOMING

CITY           SKY/WX    TMP DP  RH WIND       PRES   REMARKS
JACKSON        FAIR      59  50  72 NW9       30.11R
CODY           FAIR      73  39  29 N3        29.92F
GREYBULL       FAIR      67  41  38 W3        29.83S
WORLAND        FAIR      69  39  33 S5        29.85F
SHERIDAN       FAIR      65  43  44 W5        29.82F
BUFFALO        FAIR      75  34  22 S3        29.91F
GILLETTE       FAIR      71  35  26 S16       29.88F
HULETT         FAIR      81  36  19 S20       29.90F
NEWCASTLE      FAIR      75  34  22 SE14      29.96F

$$
WYZ014>020-022>026-101>103-300900-
CENTRAL WYOMING

CITY           SKY/WX    TMP DP  RH WIND       PRES   REMARKS
BIG PINEY      LGT RAIN  57  40  52 CALM      30.15R
PINEDALE       PTSUNNY   55  41  58 NW8G22    30.17R
DUBOIS         PTSUNNY   61  37  41 W22       30.13R
LANDER         FAIR      76  37  24 SW10      29.97F
RIVERTON       FAIR      71  38  29 SW10      29.98F
CASPER         FAIR      67  30  25 SW10      30.01F
DOUGLAS        FAIR      62  36  37 E8        30.01F

$$
WYZ021-027>030-104>119-300900-
SOUTHERN WYOMING

CITY           SKY/WX    TMP DP  RH WIND       PRES   REMARKS
EVANSTON       FAIR      66  36  32 S12       30.14F
KEMMERER       FAIR      61  32  33 SE5       30.16F
FORT BRIDGER   SUNNY     64  34  32 S14       30.17S
ROCK SPRINGS   FAIR      68  32  26 S9        30.13F
DIXON          FAIR      54  36  51 SE3       30.20S
RAWLINS        FAIR      66  29  24 SW8       30.17S
SARATOGA       FAIR      55  36  47 SE6       30.21S
LARAMIE        FAIR      50  35  56 SW7       30.22F
CHEYENNE       FAIR      60  42  51 SW3       30.14F
TORRINGTON     FAIR      63  42  46 E6        29.99F
PINE BLUFFS    FAIR      63  37  39 S9        30.10F

$$


USA.gov is the U.S. government's official web portal to all federal, state and local government web resources and services.